NOZ1359 EGPH-ENBR

Flight info

Callsign NOZ1359
Flight time N/A
Altitude 25000
Route GRICE P600 ASNUD/N0438F370 DCT BEREP/N0439F390 DCT MODNI
Aircraft B738/M-SDE2E3GHIJ1LRWXY/LB1

Departure

Time 2026-04-22 07:21
Airport Edinburgh Airport (EGPH)

Arrival

Time N/A
Airport Bergen Airport, Flesland (ENBR)
Time Latitude Longitude Altitude Speed Heading
2026-04-22 06:58 55.94657 -3.36621 115 ft 0 kts 88°
2026-04-22 07:13 55.94657 -3.36622 115 ft 1 kts 88°
2026-04-22 07:13 55.94656 -3.36666 112 ft 4 kts 89°
2026-04-22 07:14 55.94656 -3.36706 113 ft 4 kts 73°
2026-04-22 07:14 55.94643 -3.36734 111 ft 4 kts
2026-04-22 07:14 55.94618 -3.36734 113 ft 1 kts 359°
2026-04-22 07:14 55.94617 -3.36734 113 ft 0 kts 359°
2026-04-22 07:16 55.94618 -3.36734 113 ft 1 kts 359°
2026-04-22 07:16 55.94636 -3.36734 111 ft 5 kts
2026-04-22 07:16 55.94692 -3.36733 114 ft 11 kts
2026-04-22 07:17 55.94774 -3.36765 114 ft 13 kts 338°
2026-04-22 07:17 55.94860 -3.36782 115 ft 12 kts 358°
2026-04-22 07:17 55.94927 -3.36860 115 ft 12 kts 282°
2026-04-22 07:17 55.94890 -3.37004 112 ft 14 kts 238°
2026-04-22 07:18 55.94828 -3.37187 113 ft 20 kts 239°
2026-04-22 07:18 55.94744 -3.37432 111 ft 26 kts 238°
2026-04-22 07:18 55.94641 -3.37736 113 ft 29 kts 239°
2026-04-22 07:18 55.94551 -3.37999 115 ft 24 kts 238°
2026-04-22 07:19 55.94467 -3.38247 114 ft 23 kts 238°
2026-04-22 07:19 55.94387 -3.38485 114 ft 22 kts 240°
2026-04-22 07:19 55.94309 -3.38718 114 ft 21 kts 239°
2026-04-22 07:19 55.94317 -3.38903 113 ft 16 kts 324°
2026-04-22 07:20 55.94414 -3.38963 113 ft 16 kts 33°
2026-04-22 07:20 55.94477 -3.38794 111 ft 21 kts 59°
2026-04-22 07:20 55.94672 -3.38216 114 ft 89 kts 59°
2026-04-22 07:20 55.95099 -3.36959 134 ft 143 kts 60°
2026-04-22 07:21 55.95602 -3.35417 843 ft 137 kts 56°
2026-04-22 07:21 55.96174 -3.34064 1557 ft 142 kts 44°
2026-04-22 07:21 55.96964 -3.32986 2302 ft 139 kts 41°
2026-04-22 07:21 55.97801 -3.32085 2984 ft 146 kts 22°
2026-04-22 07:22 55.98841 -3.32389 3487 ft 173 kts 329°
2026-04-22 07:22 55.99787 -3.33949 3779 ft 203 kts 320°
2026-04-22 07:22 56.00860 -3.35835 3999 ft 227 kts 319°
2026-04-22 07:22 56.02048 -3.37927 4193 ft 253 kts 318°